Year,Month,Day,Hour,Minute,Value (Times are PST for windgust in km/hr)
2012,02,21,00,24,1.60
2012,02,21,00,25,1.60
2012,02,21,00,26,1.60
2012,02,21,00,27,1.60
2012,02,21,00,54,1.60
2012,02,21,01,10,1.60
2012,02,21,01,24,1.60
2012,02,21,02,37,1.60
2012,02,21,02,41,1.60
2012,02,21,02,46,1.60
2012,02,21,02,50,3.20
2012,02,21,02,54,1.60
2012,02,21,02,57,1.60
2012,02,21,03,05,1.60
2012,02,21,03,10,1.60
2012,02,21,03,15,1.60
2012,02,21,03,23,1.60
2012,02,21,03,24,1.60
2012,02,21,03,26,4.80
2012,02,21,03,27,1.60
2012,02,21,03,38,4.80
2012,02,21,03,39,4.80
2012,02,21,03,40,1.60
2012,02,21,03,41,1.60
2012,02,21,03,42,1.60
2012,02,21,03,43,3.20
2012,02,21,03,59,1.60
2012,02,21,04,00,6.40
2012,02,21,04,01,1.60
2012,02,21,04,02,3.20
2012,02,21,04,04,1.60
2012,02,21,04,07,1.60
2012,02,21,04,09,1.60
2012,02,21,04,10,1.60
2012,02,21,04,12,1.60
2012,02,21,04,15,3.20
2012,02,21,04,20,1.60
2012,02,21,04,24,4.80
2012,02,21,04,25,3.20
2012,02,21,04,26,1.60
2012,02,21,04,31,3.20
2012,02,21,04,33,4.80
2012,02,21,04,34,3.20
2012,02,21,04,37,1.60
2012,02,21,04,38,3.20
2012,02,21,04,39,1.60
2012,02,21,04,43,1.60
2012,02,21,04,44,1.60
2012,02,21,04,45,1.60
2012,02,21,04,46,1.60
2012,02,21,04,48,3.20
2012,02,21,04,49,6.40
2012,02,21,04,50,3.20
2012,02,21,04,51,3.20
2012,02,21,04,52,4.80
2012,02,21,04,53,3.20
2012,02,21,04,54,3.20
2012,02,21,04,55,1.60
2012,02,21,04,57,4.80
2012,02,21,04,58,6.40
2012,02,21,04,59,3.20
2012,02,21,05,00,1.60
2012,02,21,05,01,4.80
2012,02,21,05,02,11.30
2012,02,21,05,03,8.10
2012,02,21,05,04,3.20
2012,02,21,05,05,1.60
2012,02,21,05,06,3.20
2012,02,21,05,07,3.20
2012,02,21,05,08,1.60
2012,02,21,05,09,3.20
2012,02,21,05,10,6.40
2012,02,21,05,11,3.20
2012,02,21,05,12,3.20
2012,02,21,05,14,1.60
2012,02,21,05,15,1.60
2012,02,21,05,16,3.20
2012,02,21,05,17,3.20
2012,02,21,05,18,4.80
2012,02,21,05,19,3.20
2012,02,21,05,20,8.10
2012,02,21,05,21,6.40
2012,02,21,05,22,4.80
2012,02,21,05,23,4.80
2012,02,21,05,24,3.20
2012,02,21,05,25,4.80
2012,02,21,05,26,6.40
2012,02,21,05,27,6.40
2012,02,21,05,28,9.60
2012,02,21,05,29,6.40
2012,02,21,05,30,4.80
2012,02,21,05,31,4.80
2012,02,21,05,32,11.30
2012,02,21,05,33,4.80
2012,02,21,05,34,3.20
2012,02,21,05,35,8.10
2012,02,21,05,36,6.40
2012,02,21,05,37,6.40
2012,02,21,05,38,11.30
2012,02,21,05,39,4.80
2012,02,21,05,40,8.10
2012,02,21,05,41,6.40
2012,02,21,05,42,8.10
2012,02,21,05,43,8.10
2012,02,21,05,44,6.40
2012,02,21,05,45,6.40
2012,02,21,05,46,6.40
2012,02,21,05,47,6.40
2012,02,21,05,48,4.80
2012,02,21,05,49,8.10
2012,02,21,05,50,6.40
2012,02,21,05,51,6.40
2012,02,21,05,52,6.40
2012,02,21,05,53,8.10
2012,02,21,05,54,4.80
2012,02,21,05,55,6.40
2012,02,21,05,56,11.30
2012,02,21,05,57,9.60
2012,02,21,05,58,11.30
2012,02,21,05,59,8.10
2012,02,21,06,00,6.40
2012,02,21,06,01,8.10
2012,02,21,06,02,9.60
2012,02,21,06,03,11.30
2012,02,21,06,04,8.10
2012,02,21,06,05,8.10
2012,02,21,06,06,3.20
2012,02,21,06,07,4.80
2012,02,21,06,08,8.10
2012,02,21,06,09,9.60
2012,02,21,06,10,9.60
2012,02,21,06,11,8.10
2012,02,21,06,12,8.10
2012,02,21,06,13,14.50
2012,02,21,06,14,3.20
2012,02,21,06,15,8.10
2012,02,21,06,16,9.60
2012,02,21,06,17,9.60
2012,02,21,06,18,6.40
2012,02,21,06,19,6.40
2012,02,21,06,20,9.60
2012,02,21,06,21,4.80
2012,02,21,06,22,1.60
2012,02,21,06,23,6.40
2012,02,21,06,24,8.10
2012,02,21,06,25,1.60
2012,02,21,06,26,6.40
2012,02,21,06,27,9.60
2012,02,21,06,28,11.30
2012,02,21,06,29,6.40
2012,02,21,06,30,8.10
2012,02,21,06,31,4.80
2012,02,21,06,32,8.10
2012,02,21,06,33,4.80
2012,02,21,06,34,11.30
2012,02,21,06,35,9.60
2012,02,21,06,36,8.10
2012,02,21,06,37,4.80
2012,02,21,06,38,4.80
2012,02,21,06,39,3.20
2012,02,21,06,40,3.20
2012,02,21,06,41,6.40
2012,02,21,06,42,9.60
2012,02,21,06,43,6.40
2012,02,21,06,44,3.20
2012,02,21,06,45,4.80
2012,02,21,06,46,3.20
2012,02,21,06,48,3.20
2012,02,21,06,49,3.20
2012,02,21,06,50,3.20
2012,02,21,06,51,4.80
2012,02,21,06,52,4.80
2012,02,21,06,53,3.20
2012,02,21,06,54,4.80
2012,02,21,06,55,1.60
2012,02,21,06,56,4.80
2012,02,21,06,57,3.20
2012,02,21,06,58,4.80
2012,02,21,06,59,11.30
2012,02,21,07,00,4.80
2012,02,21,07,01,8.10
2012,02,21,07,02,8.10
2012,02,21,07,03,6.40
2012,02,21,07,04,11.30
2012,02,21,07,05,6.40
2012,02,21,07,06,6.40
2012,02,21,07,07,6.40
2012,02,21,07,08,6.40
2012,02,21,07,09,4.80
2012,02,21,07,10,9.60
2012,02,21,07,11,6.40
2012,02,21,07,12,6.40
2012,02,21,07,13,12.90
2012,02,21,07,14,3.20
2012,02,21,07,15,6.40
2012,02,21,07,16,6.40
2012,02,21,07,17,4.80
2012,02,21,07,18,3.20
2012,02,21,07,19,6.40
2012,02,21,07,20,6.40
2012,02,21,07,21,4.80
2012,02,21,07,22,6.40
2012,02,21,07,23,16.10
2012,02,21,07,24,9.60
2012,02,21,07,25,6.40
2012,02,21,07,26,3.20
2012,02,21,07,27,3.20
2012,02,21,07,28,3.20
2012,02,21,07,29,3.20
2012,02,21,07,30,4.80
2012,02,21,07,31,6.40
2012,02,21,07,32,6.40
2012,02,21,07,33,1.60
2012,02,21,07,34,1.60
2012,02,21,07,35,1.60
2012,02,21,07,36,6.40
2012,02,21,07,37,4.80
2012,02,21,07,38,6.40
2012,02,21,07,39,6.40
2012,02,21,07,40,4.80
2012,02,21,07,41,4.80
2012,02,21,07,42,6.40
2012,02,21,07,43,8.10
2012,02,21,07,44,4.80
2012,02,21,07,45,11.30
2012,02,21,07,46,4.80
2012,02,21,07,47,1.60
2012,02,21,07,48,4.80
2012,02,21,07,49,6.40
2012,02,21,07,50,6.40
2012,02,21,07,51,8.10
2012,02,21,07,52,4.80
2012,02,21,07,53,3.20
2012,02,21,07,54,3.20
2012,02,21,07,55,9.60
2012,02,21,07,56,4.80
2012,02,21,07,57,3.20
2012,02,21,07,58,16.10
2012,02,21,07,59,4.80
2012,02,21,08,00,3.20
2012,02,21,08,01,3.20
2012,02,21,08,02,1.60
2012,02,21,08,04,3.20
2012,02,21,08,05,4.80
2012,02,21,08,06,1.60
2012,02,21,08,09,1.60
2012,02,21,08,10,1.60
2012,02,21,08,11,1.60
2012,02,21,08,12,1.60
2012,02,21,08,13,1.60
2012,02,21,08,14,1.60
2012,02,21,08,15,4.80
2012,02,21,08,16,3.20
2012,02,21,08,19,1.60
2012,02,21,08,20,1.60
2012,02,21,08,24,3.20
2012,02,21,08,25,3.20
2012,02,21,08,26,1.60
2012,02,21,08,27,1.60
2012,02,21,08,28,1.60
2012,02,21,08,30,3.20
2012,02,21,08,31,1.60
2012,02,21,08,32,1.60
2012,02,21,08,33,4.80
2012,02,21,08,34,3.20
2012,02,21,08,35,3.20
2012,02,21,08,36,1.60
2012,02,21,08,39,8.10
2012,02,21,08,40,3.20
2012,02,21,08,41,6.40
2012,02,21,08,42,4.80
2012,02,21,08,43,11.30
2012,02,21,08,44,6.40
2012,02,21,08,45,11.30
2012,02,21,08,46,9.60
2012,02,21,08,47,11.30
2012,02,21,08,48,8.10
2012,02,21,08,49,6.40
2012,02,21,08,50,16.10
2012,02,21,08,51,8.10
2012,02,21,08,52,4.80
2012,02,21,08,53,6.40
2012,02,21,08,54,8.10
2012,02,21,08,55,17.70
2012,02,21,08,56,11.30
2012,02,21,08,57,9.60
2012,02,21,08,58,11.30
2012,02,21,08,59,17.70
2012,02,21,09,00,11.30
2012,02,21,09,01,8.10
2012,02,21,09,02,17.70
2012,02,21,09,03,11.30
2012,02,21,09,04,6.40
2012,02,21,09,05,4.80
2012,02,21,09,06,3.20
2012,02,21,09,07,4.80
2012,02,21,09,08,6.40
2012,02,21,09,09,9.60
2012,02,21,09,10,9.60
2012,02,21,09,14,4.80
2012,02,21,09,15,4.80
2012,02,21,09,16,4.80
2012,02,21,09,17,8.10
2012,02,21,09,18,8.10
2012,02,21,09,19,6.40
2012,02,21,09,20,9.60
2012,02,21,09,21,6.40
2012,02,21,09,22,19.30
2012,02,21,09,23,11.30
2012,02,21,09,24,4.80
2012,02,21,09,25,9.60
2012,02,21,09,26,19.30
2012,02,21,09,27,9.60
2012,02,21,09,28,11.30
2012,02,21,09,29,3.20
2012,02,21,09,30,4.80
2012,02,21,09,32,8.10
2012,02,21,09,33,4.80
2012,02,21,09,34,8.10
2012,02,21,09,35,4.80
2012,02,21,09,37,8.10
2012,02,21,09,38,4.80
2012,02,21,09,39,6.40
2012,02,21,09,40,17.70
2012,02,21,09,41,9.60
2012,02,21,09,42,11.30
2012,02,21,09,43,9.60
2012,02,21,09,44,3.20
2012,02,21,09,45,4.80
2012,02,21,09,46,8.10
2012,02,21,09,47,6.40
2012,02,21,09,48,1.60
2012,02,21,09,49,1.60
2012,02,21,09,50,9.60
2012,02,21,09,51,6.40
2012,02,21,09,52,6.40
2012,02,21,09,53,3.20
2012,02,21,09,54,4.80
2012,02,21,09,55,8.10
2012,02,21,09,56,9.60
2012,02,21,09,57,8.10
2012,02,21,09,58,8.10
2012,02,21,09,59,11.30
2012,02,21,10,00,9.60
2012,02,21,10,01,8.10
2012,02,21,10,02,3.20
2012,02,21,10,03,4.80
2012,02,21,10,04,3.20
2012,02,21,10,05,3.20
2012,02,21,10,06,9.60
2012,02,21,10,07,19.30
2012,02,21,10,08,8.10
2012,02,21,10,09,14.50
2012,02,21,10,10,11.30
2012,02,21,10,11,6.40
2012,02,21,10,12,4.80
2012,02,21,10,13,8.10
2012,02,21,10,14,9.60
2012,02,21,10,15,4.80
2012,02,21,10,16,8.10
2012,02,21,10,17,20.90
2012,02,21,10,18,16.10
2012,02,21,10,19,16.10
2012,02,21,10,20,17.70
2012,02,21,10,21,17.70
2012,02,21,10,22,16.10
2012,02,21,10,23,6.40
2012,02,21,10,24,20.90
2012,02,21,10,25,17.70
2012,02,21,10,26,6.40
2012,02,21,10,27,9.60
2012,02,21,10,28,19.30
2012,02,21,10,29,22.50
2012,02,21,10,30,17.70
2012,02,21,10,31,25.70
2012,02,21,10,32,20.90
2012,02,21,10,33,16.10
2012,02,21,10,34,24.20
2012,02,21,10,35,19.30
2012,02,21,10,36,27.40
2012,02,21,10,37,24.20
2012,02,21,10,38,19.30
2012,02,21,10,39,25.70
2012,02,21,10,40,19.30
2012,02,21,10,41,20.90
2012,02,21,10,42,33.80
2012,02,21,10,43,33.80
2012,02,21,10,44,37.00
2012,02,21,10,45,27.40
2012,02,21,10,46,25.70
2012,02,21,10,47,11.30
2012,02,21,10,48,8.10
2012,02,21,10,49,11.30
2012,02,21,10,50,16.10
2012,02,21,10,51,9.60
2012,02,21,10,52,22.50
2012,02,21,10,53,12.90
2012,02,21,10,54,19.30
2012,02,21,10,55,25.70
2012,02,21,10,56,22.50
2012,02,21,10,57,9.60
2012,02,21,10,58,17.70
2012,02,21,10,59,25.70
2012,02,21,11,00,27.40
2012,02,21,11,01,32.20
2012,02,21,11,02,17.70
2012,02,21,11,03,20.90
2012,02,21,11,04,22.50
2012,02,21,11,05,25.70
2012,02,21,11,06,25.70
2012,02,21,11,07,14.50
2012,02,21,11,08,12.90
2012,02,21,11,09,17.70
2012,02,21,11,10,30.60
2012,02,21,11,11,29.00
2012,02,21,11,12,27.40
2012,02,21,11,13,24.20
2012,02,21,11,14,24.20
2012,02,21,11,15,22.50
2012,02,21,11,16,22.50
2012,02,21,11,17,16.10
2012,02,21,11,18,29.00
2012,02,21,11,19,20.90
2012,02,21,11,20,20.90
2012,02,21,11,21,30.60
2012,02,21,11,22,33.80
2012,02,21,11,23,25.70
2012,02,21,11,24,19.30
2012,02,21,11,25,25.70
2012,02,21,11,26,37.00
2012,02,21,11,27,27.40
2012,02,21,11,28,33.80
2012,02,21,11,29,35.40
2012,02,21,11,30,32.20
2012,02,21,11,31,24.20
2012,02,21,11,32,30.60
2012,02,21,11,33,25.70
2012,02,21,11,34,30.60
2012,02,21,11,35,33.80
2012,02,21,11,36,29.00
2012,02,21,11,37,19.30
2012,02,21,11,38,22.50
2012,02,21,11,39,22.50
2012,02,21,11,40,27.40
2012,02,21,11,41,19.30
2012,02,21,11,42,32.20
2012,02,21,11,43,40.20
2012,02,21,11,44,20.90
2012,02,21,11,45,27.40
2012,02,21,11,46,27.40
2012,02,21,11,47,20.90
2012,02,21,11,48,20.90
2012,02,21,11,49,25.70
2012,02,21,11,50,32.20
2012,02,21,11,51,25.70
2012,02,21,11,52,25.70
2012,02,21,11,53,32.20
2012,02,21,11,54,27.40
2012,02,21,11,55,30.60
2012,02,21,11,56,38.60
2012,02,21,11,57,24.20
2012,02,21,11,58,33.80
2012,02,21,11,59,33.80
2012,02,21,12,00,17.70
2012,02,21,12,01,29.00
2012,02,21,12,02,33.80
2012,02,21,12,03,32.20
2012,02,21,12,04,25.70
2012,02,21,12,05,33.80
2012,02,21,12,06,41.80
2012,02,21,12,07,32.20
2012,02,21,12,08,24.20
2012,02,21,12,09,17.70
2012,02,21,12,10,24.20
2012,02,21,12,11,30.60
2012,02,21,12,12,40.20
2012,02,21,12,13,25.70
2012,02,21,12,14,32.20
2012,02,21,12,15,22.50
2012,02,21,12,16,19.30
2012,02,21,12,17,35.40
2012,02,21,12,18,24.20
2012,02,21,12,19,22.50
2012,02,21,12,20,25.70
2012,02,21,12,21,32.20
2012,02,21,12,22,40.20
2012,02,21,12,23,40.20
2012,02,21,12,24,41.80
2012,02,21,12,25,22.50
2012,02,21,12,26,30.60
2012,02,21,12,27,24.20
2012,02,21,12,28,29.00
2012,02,21,12,29,11.30
2012,02,21,12,30,45.10
2012,02,21,12,31,33.80
2012,02,21,12,32,53.10
2012,02,21,12,33,51.50
2012,02,21,12,34,37.00
2012,02,21,12,35,25.70
2012,02,21,12,36,30.60
2012,02,21,12,37,33.80
2012,02,21,12,38,32.20
2012,02,21,12,39,49.90
2012,02,21,12,40,41.80
2012,02,21,12,41,43.50
2012,02,21,12,42,35.40
2012,02,21,12,43,35.40
2012,02,21,12,44,35.40
2012,02,21,12,45,35.40
2012,02,21,12,46,37.00
2012,02,21,12,47,35.40
2012,02,21,12,48,33.80
2012,02,21,12,49,29.00
2012,02,21,12,50,33.80
2012,02,21,12,51,49.90
2012,02,21,12,52,37.00
2012,02,21,12,53,30.60
2012,02,21,12,54,27.40
2012,02,21,12,55,30.60
2012,02,21,12,56,32.20
2012,02,21,12,57,20.90
2012,02,21,12,58,24.20
2012,02,21,12,59,19.30
2012,02,21,13,00,37.00
2012,02,21,13,01,38.60
2012,02,21,13,02,41.80
2012,02,21,13,03,33.80
2012,02,21,13,04,37.00
2012,02,21,13,05,27.40
2012,02,21,13,06,25.70
2012,02,21,13,07,32.20
2012,02,21,13,08,33.80
2012,02,21,13,09,24.20
2012,02,21,13,10,30.60
2012,02,21,13,11,20.90
2012,02,21,13,12,20.90
2012,02,21,13,13,24.20
2012,02,21,13,14,27.40
2012,02,21,13,15,32.20
2012,02,21,13,16,35.40
2012,02,21,13,17,43.50
2012,02,21,13,18,29.00
2012,02,21,13,19,25.70
2012,02,21,13,20,29.00
2012,02,21,13,21,29.00
2012,02,21,13,22,22.50
2012,02,21,13,23,30.60
2012,02,21,13,24,32.20
2012,02,21,13,25,27.40
2012,02,21,13,26,17.70
2012,02,21,13,27,24.20
2012,02,21,13,28,32.20
2012,02,21,13,29,25.70
2012,02,21,13,30,33.80
2012,02,21,13,31,37.00
2012,02,21,13,32,38.60
2012,02,21,13,33,27.40
2012,02,21,13,34,30.60
2012,02,21,13,35,32.20
2012,02,21,13,36,43.50
2012,02,21,13,37,29.00
2012,02,21,13,38,27.40
2012,02,21,13,39,53.10
2012,02,21,13,40,41.80
2012,02,21,13,41,30.60
2012,02,21,13,42,40.20
2012,02,21,13,43,30.60
2012,02,21,13,44,35.40
2012,02,21,13,45,29.00
2012,02,21,13,46,25.70
2012,02,21,13,47,35.40
2012,02,21,13,48,24.20
2012,02,21,13,49,41.80
2012,02,21,13,50,29.00
2012,02,21,13,51,32.20
2012,02,21,13,52,38.60
2012,02,21,13,53,16.10
2012,02,21,13,54,29.00
2012,02,21,13,55,27.40
2012,02,21,13,56,24.20
2012,02,21,13,57,53.10
2012,02,21,13,58,46.70
2012,02,21,13,59,48.30
2012,02,21,14,00,46.70
2012,02,21,14,01,45.10
2012,02,21,14,02,35.40
2012,02,21,14,03,46.70
2012,02,21,14,04,46.70
2012,02,21,14,05,41.80
2012,02,21,14,06,35.40
2012,02,21,14,07,35.40
2012,02,21,14,08,30.60
2012,02,21,14,09,32.20
2012,02,21,14,10,27.40
2012,02,21,14,11,29.00
2012,02,21,14,12,40.20
2012,02,21,14,13,40.20
2012,02,21,14,14,30.60
2012,02,21,14,15,33.80
2012,02,21,14,16,41.80
2012,02,21,14,17,35.40
2012,02,21,14,18,38.60
2012,02,21,14,19,32.20
2012,02,21,14,20,38.60
2012,02,21,14,21,24.20
2012,02,21,14,22,25.70
2012,02,21,14,23,35.40
2012,02,21,14,24,24.20
2012,02,21,14,25,17.70
2012,02,21,14,26,37.00
2012,02,21,14,27,27.40
2012,02,21,14,28,35.40
2012,02,21,14,29,37.00
2012,02,21,14,30,32.20
2012,02,21,14,31,27.40
2012,02,21,14,32,32.20
2012,02,21,14,33,17.70
2012,02,21,14,34,19.30
2012,02,21,14,35,25.70
2012,02,21,14,36,27.40
2012,02,21,14,37,37.00
2012,02,21,14,38,40.20
2012,02,21,14,39,32.20
2012,02,21,14,40,32.20
2012,02,21,14,41,45.10
2012,02,21,14,42,25.70
2012,02,21,14,43,30.60
2012,02,21,14,44,29.00
2012,02,21,14,45,35.40
2012,02,21,14,46,30.60
2012,02,21,14,47,33.80
2012,02,21,14,48,33.80
2012,02,21,14,49,25.70
2012,02,21,14,50,32.20
2012,02,21,14,51,45.10
2012,02,21,14,52,30.60
2012,02,21,14,53,27.40
2012,02,21,14,54,30.60
2012,02,21,14,55,30.60
2012,02,21,14,56,29.00
2012,02,21,14,57,25.70
2012,02,21,14,58,30.60
2012,02,21,14,59,25.70
2012,02,21,15,00,27.40
2012,02,21,15,01,33.80
2012,02,21,15,02,24.20
2012,02,21,15,03,35.40
2012,02,21,15,04,29.00
2012,02,21,15,05,37.00
2012,02,21,15,06,30.60
2012,02,21,15,07,32.20
2012,02,21,15,08,29.00
2012,02,21,15,09,33.80
2012,02,21,15,10,30.60
2012,02,21,15,11,30.60
2012,02,21,15,12,35.40
2012,02,21,15,13,43.50
2012,02,21,15,14,29.00
2012,02,21,15,15,30.60
2012,02,21,15,16,33.80
2012,02,21,15,17,30.60
2012,02,21,15,18,16.10
2012,02,21,15,19,38.60
2012,02,21,15,20,45.10
2012,02,21,15,21,38.60
2012,02,21,15,22,33.80
2012,02,21,15,23,40.20
2012,02,21,15,24,35.40
2012,02,21,15,25,30.60
2012,02,21,15,26,43.50
2012,02,21,15,27,45.10
2012,02,21,15,28,25.70
2012,02,21,15,29,22.50
2012,02,21,15,30,29.00
2012,02,21,15,31,24.20
2012,02,21,15,32,33.80
2012,02,21,15,33,37.00
2012,02,21,15,34,40.20
2012,02,21,15,35,27.40
2012,02,21,15,36,45.10
2012,02,21,15,37,33.80
2012,02,21,15,38,37.00
2012,02,21,15,39,32.20
2012,02,21,15,40,17.70
2012,02,21,15,41,38.60
2012,02,21,15,42,27.40
2012,02,21,15,43,32.20
2012,02,21,15,44,43.50
2012,02,21,15,45,30.60
2012,02,21,15,46,35.40
2012,02,21,15,47,48.30
2012,02,21,15,48,32.20
2012,02,21,15,49,40.20
2012,02,21,15,50,37.00
2012,02,21,15,51,35.40
2012,02,21,15,52,45.10
2012,02,21,15,53,38.60
2012,02,21,15,54,38.60
2012,02,21,15,55,24.20
2012,02,21,15,56,35.40
2012,02,21,15,57,41.80
2012,02,21,15,58,33.80
2012,02,21,15,59,30.60
2012,02,21,16,00,32.20
2012,02,21,16,01,25.70
2012,02,21,16,02,38.60
2012,02,21,16,03,33.80
2012,02,21,16,04,35.40
2012,02,21,16,05,32.20
2012,02,21,16,06,27.40
2012,02,21,16,07,24.20
2012,02,21,16,08,14.50
2012,02,21,16,09,25.70
2012,02,21,16,10,22.50
2012,02,21,16,11,24.20
2012,02,21,16,12,17.70
2012,02,21,16,13,25.70
2012,02,21,16,14,19.30
2012,02,21,16,15,20.90
2012,02,21,16,16,19.30
2012,02,21,16,17,9.60
2012,02,21,16,18,27.40
2012,02,21,16,19,25.70
2012,02,21,16,20,22.50
2012,02,21,16,21,27.40
2012,02,21,16,22,29.00
2012,02,21,16,23,24.20
2012,02,21,16,24,24.20
2012,02,21,16,25,19.30
2012,02,21,16,26,22.50
2012,02,21,16,27,30.60
2012,02,21,16,28,17.70
2012,02,21,16,29,41.80
2012,02,21,16,30,29.00
2012,02,21,16,31,25.70
2012,02,21,16,32,20.90
2012,02,21,16,33,25.70
2012,02,21,16,34,17.70
2012,02,21,16,35,40.20
2012,02,21,16,36,25.70
2012,02,21,16,37,24.20
2012,02,21,16,38,40.20
2012,02,21,16,39,32.20
2012,02,21,16,40,38.60
2012,02,21,16,41,32.20
2012,02,21,16,42,30.60
2012,02,21,16,43,27.40
2012,02,21,16,44,22.50
2012,02,21,16,45,27.40
2012,02,21,16,46,30.60
2012,02,21,16,47,22.50
2012,02,21,16,48,17.70
2012,02,21,16,49,29.00
2012,02,21,16,50,38.60
2012,02,21,16,51,30.60
2012,02,21,16,52,29.00
2012,02,21,16,53,25.70
2012,02,21,16,54,38.60
2012,02,21,16,55,32.20
2012,02,21,16,56,32.20
2012,02,21,16,57,25.70
2012,02,21,16,58,24.20
2012,02,21,16,59,22.50
2012,02,21,17,00,33.80
2012,02,21,17,01,43.50
2012,02,21,17,02,38.60
2012,02,21,17,03,29.00
2012,02,21,17,04,25.70
2012,02,21,17,05,38.60
2012,02,21,17,06,38.60
2012,02,21,17,07,35.40
2012,02,21,17,08,30.60
2012,02,21,17,09,29.00
2012,02,21,17,10,43.50
2012,02,21,17,11,29.00
2012,02,21,17,12,40.20
2012,02,21,17,13,20.90
2012,02,21,17,14,25.70
2012,02,21,17,15,25.70
2012,02,21,17,16,41.80
2012,02,21,17,17,27.40
2012,02,21,17,18,33.80
2012,02,21,17,19,27.40
2012,02,21,17,20,37.00
2012,02,21,17,21,33.80
2012,02,21,17,22,29.00
2012,02,21,17,23,37.00
2012,02,21,17,24,29.00
2012,02,21,17,25,38.60
2012,02,21,17,26,37.00
2012,02,21,17,27,41.80
2012,02,21,17,28,25.70
2012,02,21,17,29,30.60
2012,02,21,17,30,38.60
2012,02,21,17,31,41.80
2012,02,21,17,32,22.50
2012,02,21,17,33,33.80
2012,02,21,17,34,33.80
2012,02,21,17,35,38.60
2012,02,21,17,36,24.20
2012,02,21,17,37,22.50
2012,02,21,17,38,30.60
2012,02,21,17,39,32.20
2012,02,21,17,40,46.70
2012,02,21,17,41,33.80
2012,02,21,17,42,51.50
2012,02,21,17,43,27.40
2012,02,21,17,44,38.60
2012,02,21,17,45,24.20
2012,02,21,17,46,35.40
2012,02,21,17,47,41.80
2012,02,21,17,48,45.10
2012,02,21,17,49,32.20
2012,02,21,17,50,19.30
2012,02,21,17,51,37.00
2012,02,21,17,52,30.60
2012,02,21,17,53,35.40
2012,02,21,17,54,53.10
2012,02,21,17,55,40.20
2012,02,21,17,56,32.20
2012,02,21,17,57,30.60
2012,02,21,17,58,27.40
2012,02,21,17,59,27.40
2012,02,21,18,00,30.60
2012,02,21,18,01,30.60
2012,02,21,18,02,29.00
2012,02,21,18,03,27.40
2012,02,21,18,04,29.00
2012,02,21,18,05,30.60
2012,02,21,18,06,30.60
2012,02,21,18,07,33.80
2012,02,21,18,08,25.70
2012,02,21,18,09,30.60
2012,02,21,18,10,30.60
2012,02,21,18,11,33.80
2012,02,21,18,12,32.20
2012,02,21,18,13,32.20
2012,02,21,18,14,40.20
2012,02,21,18,15,29.00
2012,02,21,18,16,32.20
2012,02,21,18,17,37.00
2012,02,21,18,18,25.70
2012,02,21,18,19,38.60
2012,02,21,18,20,25.70
2012,02,21,18,21,35.40
2012,02,21,18,22,24.20
2012,02,21,18,23,32.20
2012,02,21,18,24,32.20
2012,02,21,18,25,22.50
2012,02,21,18,26,20.90
2012,02,21,18,27,29.00
2012,02,21,18,28,25.70
2012,02,21,18,29,25.70
2012,02,21,18,30,25.70
2012,02,21,18,31,20.90
2012,02,21,18,32,17.70
2012,02,21,18,33,17.70
2012,02,21,18,34,22.50
2012,02,21,18,35,22.50
2012,02,21,18,36,20.90
2012,02,21,18,37,40.20
2012,02,21,18,38,30.60
2012,02,21,18,39,30.60
2012,02,21,18,40,20.90
2012,02,21,18,41,25.70
2012,02,21,18,42,22.50
2012,02,21,18,43,17.70
2012,02,21,18,44,17.70
2012,02,21,18,45,19.30
2012,02,21,18,46,17.70
2012,02,21,18,47,24.20
2012,02,21,18,48,32.20
2012,02,21,18,49,27.40
2012,02,21,18,50,17.70
2012,02,21,18,51,14.50
2012,02,21,18,52,24.20
2012,02,21,18,53,24.20
2012,02,21,18,54,19.30
2012,02,21,18,55,24.20
2012,02,21,18,56,16.10
2012,02,21,18,57,16.10
2012,02,21,18,58,22.50
2012,02,21,18,59,20.90
2012,02,21,19,00,19.30
2012,02,21,19,01,27.40
2012,02,21,19,02,38.60
2012,02,21,19,03,30.60
2012,02,21,19,04,27.40
2012,02,21,19,05,20.90
2012,02,21,19,06,17.70
2012,02,21,19,07,25.70
2012,02,21,19,08,27.40
2012,02,21,19,09,33.80
2012,02,21,19,10,19.30
2012,02,21,19,11,19.30
2012,02,21,19,12,16.10
2012,02,21,19,13,22.50
2012,02,21,19,14,17.70
2012,02,21,19,15,16.10
2012,02,21,19,16,19.30
2012,02,21,19,17,25.70
2012,02,21,19,18,27.40
2012,02,21,19,19,27.40
2012,02,21,19,20,37.00
2012,02,21,19,21,25.70
2012,02,21,19,22,22.50
2012,02,21,19,23,29.00
2012,02,21,19,24,22.50
2012,02,21,19,25,24.20
2012,02,21,19,26,22.50
2012,02,21,19,27,14.50
2012,02,21,19,28,22.50
2012,02,21,19,29,24.20
2012,02,21,19,30,27.40
2012,02,21,19,31,27.40
2012,02,21,19,32,16.10
2012,02,21,19,33,17.70
2012,02,21,19,34,19.30
2012,02,21,19,35,17.70
2012,02,21,19,36,22.50
2012,02,21,19,37,17.70
2012,02,21,19,38,17.70
2012,02,21,19,39,27.40
2012,02,21,19,40,20.90
2012,02,21,19,41,29.00
2012,02,21,19,42,17.70
2012,02,21,19,43,20.90
2012,02,21,19,44,11.30
2012,02,21,19,45,30.60
2012,02,21,19,46,29.00
2012,02,21,19,47,29.00
2012,02,21,19,48,35.40
2012,02,21,19,49,29.00
2012,02,21,19,50,25.70
2012,02,21,19,51,32.20
2012,02,21,19,52,24.20
2012,02,21,19,53,27.40
2012,02,21,19,54,25.70
2012,02,21,19,55,33.80
2012,02,21,19,56,32.20
2012,02,21,19,57,38.60
2012,02,21,19,58,24.20
2012,02,21,19,59,29.00
2012,02,21,20,00,29.00
2012,02,21,20,01,29.00
2012,02,21,20,02,30.60
2012,02,21,20,03,22.50
2012,02,21,20,04,33.80
2012,02,21,20,05,29.00
2012,02,21,20,06,24.20
2012,02,21,20,07,17.70
2012,02,21,20,08,22.50
2012,02,21,20,09,30.60
2012,02,21,20,10,33.80
2012,02,21,20,11,25.70
2012,02,21,20,12,24.20
2012,02,21,20,13,30.60
2012,02,21,20,14,27.40
2012,02,21,20,15,29.00
2012,02,21,20,16,20.90
2012,02,21,20,17,22.50
2012,02,21,20,18,17.70
2012,02,21,20,19,24.20
2012,02,21,20,20,20.90
2012,02,21,20,21,12.90
2012,02,21,20,22,14.50
2012,02,21,20,23,24.20
2012,02,21,20,24,19.30
2012,02,21,20,25,17.70
2012,02,21,20,26,22.50
2012,02,21,20,27,35.40
2012,02,21,20,28,25.70
2012,02,21,20,29,20.90
2012,02,21,20,30,19.30
2012,02,21,20,31,16.10
2012,02,21,20,32,20.90
2012,02,21,20,33,16.10
2012,02,21,20,34,12.90
2012,02,21,20,35,11.30
2012,02,21,20,36,9.60
2012,02,21,20,37,17.70
2012,02,21,20,38,20.90
2012,02,21,20,39,9.60
2012,02,21,20,40,16.10
2012,02,21,20,41,29.00
2012,02,21,20,42,19.30
2012,02,21,20,43,22.50
2012,02,21,20,44,19.30
2012,02,21,20,45,17.70
2012,02,21,20,46,24.20
2012,02,21,20,47,25.70
2012,02,21,20,48,22.50
2012,02,21,20,49,27.40
2012,02,21,20,50,17.70
2012,02,21,20,51,22.50
2012,02,21,20,52,25.70
2012,02,21,20,53,25.70
2012,02,21,20,54,9.60
2012,02,21,20,55,19.30
2012,02,21,20,56,20.90
2012,02,21,20,57,19.30
2012,02,21,20,58,20.90
2012,02,21,20,59,17.70
2012,02,21,21,00,14.50
2012,02,21,21,01,16.10
2012,02,21,21,02,30.60
2012,02,21,21,03,22.50
2012,02,21,21,04,17.70
2012,02,21,21,05,29.00
2012,02,21,21,06,14.50
2012,02,21,21,07,19.30
2012,02,21,21,08,16.10
2012,02,21,21,09,20.90
2012,02,21,21,10,19.30
2012,02,21,21,11,17.70
2012,02,21,21,12,14.50
2012,02,21,21,13,19.30
2012,02,21,21,14,19.30
2012,02,21,21,15,11.30
2012,02,21,21,16,25.70
2012,02,21,21,17,20.90
2012,02,21,21,18,16.10
2012,02,21,21,19,11.30
2012,02,21,21,20,20.90
2012,02,21,21,21,33.80
2012,02,21,21,22,29.00
2012,02,21,21,23,14.50
2012,02,21,21,24,19.30
2012,02,21,21,25,25.70
2012,02,21,21,26,22.50
2012,02,21,21,27,24.20
2012,02,21,21,28,22.50
2012,02,21,21,29,22.50
2012,02,21,21,30,22.50
2012,02,21,21,31,20.90
2012,02,21,21,32,19.30
2012,02,21,21,33,24.20
2012,02,21,21,34,24.20
2012,02,21,21,35,16.10
2012,02,21,21,36,19.30
2012,02,21,21,37,22.50
2012,02,21,21,38,19.30
2012,02,21,21,39,16.10
2012,02,21,21,40,17.70
2012,02,21,21,41,35.40
2012,02,21,21,42,22.50
2012,02,21,21,43,17.70
2012,02,21,21,44,29.00
2012,02,21,21,45,27.40
2012,02,21,21,46,9.60
2012,02,21,21,47,20.90
2012,02,21,21,48,11.30
2012,02,21,21,49,19.30
2012,02,21,21,50,16.10